[[{"header":{"parameterUnit":"m.s-1","parameterCategory":1,"la1":30.2991,"la2":30.254,"lo1":-89.0895,"lo2":-89.0444,"dy":0.0017,"dx":0.0017,"nx":28,"ny":28,"refTime":"2025-08-07T03:00:00:Z","depth":0,"parameterNumber":2,"parameterNumberName":"U-component_of_WINDS"},"data":[0,0,0,0,0,0,0,0,0,0,0,0,0,0,0,0,0,0,0,0,0,0,0,0,0,0,0,0,0,0,0,0,0,0,0,0,0,0,0,0,0,0,0,0,0,0,0,0,0,0,0,0,0,0,0,0,0,0,-3.3934,-3.3933,0,-3.3923,-3.3923,-3.3923,-3.3857,-3.3856,-3.3854,-3.3853,-3.3843,-3.3845,-3.3846,0,0,0,0,0,0,0,0,0,0,0,0,0,-3.3902,-3.3903,-3.3934,-3.3933,-3.3933,-3.3923,-3.3923,-3.3923,-3.3858,-3.3856,-3.3854,-3.3852,-3.3843,-3.3845,-3.3846,0,0,0,0,0,0,0,0,0,0,0,0,0,-3.3906,-3.3903,-3.3934,-3.39,-3.3896,-3.3923,-3.3923,-3.3923,-3.3858,-3.3856,-3.3853,-3.3851,-3.3843,-3.3844,-3.3846,-3.3905,0,0,-3.3852,-3.3853,0,0,0,0,0,0,0,0,-3.3906,-3.3907,-3.3905,-3.3902,-3.3898,-3.3889,-3.3908,-3.3917,-3.3859,-3.3873,-3.3853,-3.385,-3.3861,-3.3861,-3.3864,-3.3905,-3.3904,-3.3852,-3.3853,-3.3854,-3.3854,0,0,0,0,0,0,0,-3.3905,-3.3907,-3.3929,-3.3905,-3.3901,-3.3886,-3.3884,-3.3909,-3.388,-3.3871,-3.3866,-3.3866,-3.3858,-3.3863,-3.3863,-3.3904,-3.3852,-3.3854,-3.3855,-3.3855,-3.3995,-3.3997,0,0,0,0,0,0,-3.391,-3.3907,-3.393,-3.3929,-3.3896,-3.3889,-3.3886,-3.3894,-3.388,-3.3875,-3.3868,-3.3863,-3.386,-3.3861,-3.3863,-3.3931,-3.3854,-3.3856,-3.3857,-3.3992,-3.3995,-3.3998,0,0,0,0,0,0,-3.3909,-3.3912,-3.393,-3.3917,-3.3918,-3.3892,-3.3901,-3.3895,-3.3899,-3.3877,-3.3872,-3.3877,-3.3859,-3.386,-3.3895,-3.393,-3.3857,-3.3858,-3.3989,-3.3993,-3.3997,-3.4068,0,0,0,0,0,0,-3.3908,-3.3912,-3.3933,-3.3918,-3.3919,-3.3962,-3.3903,-3.3897,-3.3902,-3.3896,-3.3884,-3.388,-3.3857,-3.3893,-3.3897,-3.3931,-3.386,-3.3986,-3.3991,-3.3996,-3.4063,-3.4074,-3.4084,0,0,0,0,0,-3.3908,-3.3954,-3.3935,-3.3938,-3.3944,-3.3964,-3.3964,-3.3936,-3.3905,-3.3927,-3.3913,-3.3881,-3.3926,-3.3897,-3.3901,-3.3936,-3.3984,-3.399,-3.3995,-3.4058,-3.4072,-3.4084,0,0,0,0,0,0,-3.3974,-3.3951,-3.3929,-3.3972,-3.397,-3.3953,-3.3978,-3.3952,-3.3959,-3.3952,-3.3918,-3.3916,-3.3957,-3.395,-3.3918,-3.3994,-3.3949,-3.3956,-3.3996,-3.4009,-3.4019,-3.4019,-3.3861,0,0,0,0,0,-3.3993,-3.401,-3.399,-3.4029,-3.403,-3.4005,-3.4012,-3.3991,-3.3988,-3.3987,-3.3976,-3.3975,-3.3989,-3.3999,-3.4011,-3.4063,-3.406,-3.4089,-3.41,-3.4109,-3.4114,-3.4143,-3.4155,-3.4017,-3.4017,-3.4017,0,0,-3.4033,-3.4023,-3.4036,-3.4042,-3.4038,-3.4058,-3.4004,-3.4026,-3.404,-3.399,-3.4022,-3.4015,-3.4012,-3.4056,-3.4075,-3.4052,-3.4153,-3.4116,-3.4123,-3.4124,-3.415,-3.4163,-3.4175,-3.4021,-3.4021,-3.402,0,0,-3.4116,-3.411,-3.4143,-3.4141,-3.4136,-3.412,-3.4128,-3.4115,-3.4108,-3.414,-3.4103,-3.4121,-3.4146,-3.4146,-3.4149,-3.4236,-3.4207,-3.4241,-3.4296,-3.4324,-3.4335,-3.4344,-3.4375,-3.4386,-3.4248,-3.4248,-3.4248,0,-3.4167,-3.4193,-3.4163,-3.4188,-3.4192,-3.4149,-3.4183,-3.4182,-3.4182,-3.4187,-3.4162,-3.4194,-3.4189,-3.4233,-3.4254,-3.4259,-3.4267,-3.4241,-3.4335,-3.4345,-3.4353,-3.4382,-3.4394,-3.4252,-3.4252,-3.4251,-3.4251,0,-3.4255,-3.4275,-3.4302,-3.4302,-3.4311,-3.434,-3.4316,-3.4328,-3.4308,-3.4295,-3.4329,-3.4323,-3.4333,-3.4342,-3.4322,-3.4384,-3.437,-3.4341,-3.4295,-3.4371,-3.4397,-3.4408,-3.4258,-3.4256,-3.4255,-3.4254,0,0,-3.4375,-3.4362,-3.4372,-3.4373,-3.4366,-3.4381,-3.441,-3.442,-3.4431,-3.4434,-3.4457,-3.4482,-3.4455,-3.4459,-3.4439,-3.4464,-3.4534,-3.4432,-3.4431,-3.445,-3.4603,-3.4623,-3.4637,-3.4516,-3.4518,-3.452,-3.4603,0,-3.4454,-3.45,-3.4476,-3.4526,-3.4544,-3.4505,-3.4531,-3.4531,-3.4521,-3.4536,-3.4525,-3.4542,-3.4506,-3.4508,-3.4532,-3.4521,-3.4564,-3.4515,-3.4538,-3.4539,-3.4537,-3.465,-3.4672,-3.475,-3.4613,-3.4615,-3.4616,0,-3.455,-3.4557,-3.4609,-3.4601,-3.4608,-3.4631,-3.4639,-3.4654,-3.4654,-3.4646,-3.4652,-3.4627,-3.4657,-3.4614,-3.4654,-3.4621,-3.463,-3.4627,-3.4629,-3.4628,-3.458,-3.4652,-3.4775,-3.4786,-3.4632,-3.4631,-3.463,0,-3.4632,-3.4655,-3.4689,-3.4691,-3.4682,-3.47,-3.4697,-3.4695,-3.4704,-3.4712,-3.4717,-3.473,-3.4736,-3.4747,-3.4727,-3.4697,-3.4771,-3.4726,-3.4764,-3.4765,-3.4779,-3.4778,-3.4903,-3.4788,-3.4788,-3.4788,-3.4787,0,-3.472,-3.4754,-3.4725,-3.4746,-3.4783,-3.4757,-3.4794,-3.4788,-3.4787,-3.4807,-3.4776,-3.4796,-3.4769,-3.4787,-3.4772,-3.4808,-3.4812,-3.4806,-3.4801,-3.4808,-3.4808,-3.4811,-3.4804,-3.4791,-3.479,-3.4789,-3.4789,0,-3.4816,-3.4798,-3.4833,-3.4823,-3.4822,-3.485,-3.4842,-3.4862,-3.4851,-3.4877,-3.4882,-3.4865,-3.4885,-3.4867,-3.4886,-3.4876,-3.4924,-3.4913,-3.4924,-3.492,-3.4959,-3.4955,-3.5089,-3.5105,-3.4981,-3.4982,-3.4983,0,-3.4872,-3.4897,-3.4891,-3.4902,-3.4901,-3.492,-3.4929,-3.4905,-3.4916,-3.492,-3.494,-3.4957,-3.4969,-3.5003,-3.4993,-3.5008,-3.4996,-3.5042,-3.4998,-3.5004,-3.4995,-3.4993,-3.4996,-3.505,-3.5052,-3.5053,-3.5054,0,-3.4975,-3.4966,-3.4979,-3.499,-3.5002,-3.501,-3.5015,-3.5027,-3.5003,-3.5017,-3.5037,-3.5047,-3.5067,-3.5085,-3.5097,-3.5096,-3.5072,-3.5069,-3.5078,-3.5083,-3.5088,-3.5085,-3.4946,-3.5065,-3.5064,-3.5063,-3.5062,-3.5062,-3.5052,-3.5072,-3.5071,-3.5088,-3.509,-3.5097,-3.5115,-3.5108,-3.5124,-3.5138,-3.5124,-3.5148,-3.5151,-3.5165,-3.5168,-3.5187,-3.5168,-3.5182,-3.5185,-3.5188,-3.5194,-3.5088,-3.519,-3.5189,-3.5189,-3.5189,-3.5189,0,-3.5151,-3.515,-3.5166,-3.5175,-3.5189,-3.5165,-3.5171,-3.5185,-3.5206,-3.521,-3.5224,-3.5248,-3.5266,-3.5259,-3.5275,-3.5292,-3.5282,-3.5297,-3.5295,-3.5295,-3.521,-3.52,-3.5306,-3.5306,-3.5306,-3.5306,-3.5306,-3.5306,-3.5204,-3.5238,-3.523,-3.5265,-3.5264,-3.5287,-3.5293,-3.5299,-3.5303,-3.5331,-3.5345,-3.5341,-3.5342,-3.5358,-3.5374,-3.5372,-3.5379,-3.5399,-3.5392,-3.5313,-3.5301,-3.529,-3.528,-3.5401,-3.5401,-3.5475,-3.5476,-3.5477]},{"header":{"parameterUnit":"m.s-1","parameterCategory":1,"la1":30.2991,"la2":30.254,"lo1":-89.0895,"lo2":-89.0444,"dy":0.0017,"dx":0.0017,"nx":28,"ny":28,"refTime":"2025-08-07T03:00:00:Z","depth":0,"parameterNumber":3,"parameterNumberName":"V-component_of_WINDS"},"data":[0,0,0,0,0,0,0,0,0,0,0,0,0,0,0,0,0,0,0,0,0,0,0,0,0,0,0,0,0,0,0,0,0,0,0,0,0,0,0,0,0,0,0,0,0,0,0,0,0,0,0,0,0,0,0,0,0,0,3.198,3.198,0,3.2042,3.2043,3.2044,3.2128,3.2129,3.2131,3.2132,3.2191,3.2191,3.2191,0,0,0,0,0,0,0,0,0,0,0,0,0,3.1928,3.1928,3.1979,3.198,3.1981,3.2042,3.2043,3.2044,3.2128,3.2129,3.2131,3.2133,3.2191,3.2191,3.2191,0,0,0,0,0,0,0,0,0,0,0,0,0,3.1966,3.1928,3.1979,3.203,3.2036,3.2042,3.2043,3.2044,3.2127,3.2129,3.2132,3.2134,3.2191,3.2191,3.2192,3.2151,0,0,3.2193,3.2193,0,0,0,0,0,0,0,0,3.1964,3.1968,3.2022,3.2027,3.2033,3.208,3.2047,3.208,3.2127,3.2092,3.2132,3.2135,3.2152,3.2156,3.2163,3.2154,3.2157,3.2193,3.2193,3.2193,3.2193,0,0,0,0,0,0,0,3.1961,3.1966,3.2004,3.2023,3.2029,3.2049,3.2057,3.2053,3.2109,3.2095,3.2102,3.2108,3.2155,3.2162,3.2164,3.2158,3.2193,3.2193,3.2193,3.2193,3.2119,3.2117,0,0,0,0,0,0,3.1951,3.1963,3.2002,3.2006,3.2003,3.2048,3.2057,3.2062,3.211,3.2119,3.2107,3.2112,3.216,3.2164,3.2167,3.2122,3.2193,3.2193,3.2194,3.2121,3.2119,3.2116,0,0,0,0,0,0,3.195,3.1954,3.2,3.1986,3.1994,3.2047,3.2052,3.2062,3.2069,3.2118,3.2128,3.2103,3.2162,3.2166,3.2155,3.2126,3.2194,3.2194,3.2124,3.212,3.2117,3.2033,0,0,0,0,0,0,3.1948,3.1953,3.1939,3.1985,3.1994,3.1988,3.2051,3.2062,3.2071,3.2078,3.2118,3.2126,3.2164,3.2154,3.2155,3.2127,3.2194,3.2127,3.2122,3.2118,3.2039,3.2027,3.2018,0,0,0,0,0,3.1946,3.1912,3.1938,3.1942,3.1978,3.1986,3.1991,3.2036,3.2068,3.2054,3.2085,3.2125,3.2129,3.2152,3.2154,3.2126,3.2129,3.2124,3.2119,3.2043,3.203,3.2018,0,0,0,0,0,0,3.1858,3.1919,3.1949,3.1929,3.1952,3.2,3.1983,3.202,3.2034,3.204,3.2095,3.2103,3.2084,3.2105,3.2129,3.209,3.2135,3.213,3.2077,3.2064,3.2054,3.2048,3.2195,0,0,0,0,0,3.1837,3.184,3.1892,3.187,3.188,3.193,3.1935,3.1968,3.1994,3.2003,3.2034,3.2055,3.2062,3.2064,3.2073,3.2043,3.2052,3.2025,3.2014,3.2005,3.2,3.1984,3.1972,3.21,3.21,3.21,0,0,3.1792,3.1826,3.1824,3.1853,3.1875,3.1875,3.1937,3.1935,3.1935,3.2002,3.1994,3.2017,3.2045,3.2023,3.2016,3.2039,3.1967,3.1999,3.1991,3.1991,3.1978,3.1966,3.1955,3.2097,3.2097,3.2098,0,0,3.1711,3.1737,3.1721,3.1743,3.1776,3.1809,3.1805,3.1849,3.1867,3.186,3.1911,3.1911,3.1921,3.1939,3.1949,3.1876,3.1912,3.1877,3.1821,3.1805,3.1795,3.1787,3.1759,3.1748,3.1872,3.1872,3.1871,0,3.165,3.1655,3.1708,3.1703,3.1713,3.1777,3.176,3.1778,3.1811,3.1816,3.1843,3.1857,3.1881,3.1864,3.1846,3.1853,3.1849,3.1871,3.1793,3.1785,3.1777,3.1751,3.1741,3.1867,3.1867,3.1868,3.1868,0,3.1578,3.158,3.1563,3.1596,3.1605,3.1593,3.1643,3.1646,3.1679,3.171,3.1701,3.1732,3.1747,3.1746,3.1778,3.1734,3.1748,3.1783,3.1829,3.1759,3.1736,3.1727,3.186,3.1862,3.1863,3.1864,0,0,3.144,3.1505,3.1497,3.1513,3.1555,3.1557,3.1548,3.1566,3.1566,3.1587,3.158,3.1588,3.1622,3.1633,3.1668,3.1654,3.1593,3.1691,3.1693,3.167,3.1545,3.1516,3.1504,3.1619,3.1617,3.1616,3.1542,0,3.1365,3.1356,3.1404,3.1381,3.1383,3.1445,3.1438,3.1462,3.149,3.1495,3.1526,3.153,3.1574,3.1581,3.1571,3.1602,3.1568,3.1609,3.161,3.161,3.1599,3.1492,3.1463,3.1391,3.1533,3.1532,3.1531,0,3.1276,3.1294,3.1272,3.1316,3.1319,3.1311,3.1331,3.1336,3.1364,3.1386,3.1399,3.144,3.1434,3.148,3.147,3.1497,3.1501,3.1516,3.1515,3.1514,3.1564,3.1487,3.137,3.1358,3.1517,3.1518,3.1519,0,3.1175,3.1195,3.1185,3.1196,3.1248,3.1241,3.1262,3.1293,3.13,3.1317,3.1322,3.1338,3.1345,3.1356,3.1399,3.1429,3.1384,3.1434,3.14,3.1398,3.1385,3.1385,3.1264,3.1391,3.1391,3.1391,3.1392,0,3.1085,3.1069,3.114,3.1133,3.1117,3.1172,3.1154,3.118,3.1207,3.1206,3.126,3.1257,3.1315,3.1318,3.1352,3.1338,3.1341,3.1357,3.1366,3.1351,3.1349,3.1353,3.1358,3.1389,3.1389,3.139,3.139,0,3.0969,3.1017,3.1009,3.106,3.1072,3.1057,3.1099,3.1094,3.1127,3.1124,3.1127,3.1177,3.1183,3.1229,3.1244,3.1267,3.124,3.1259,3.123,3.1236,3.1199,3.1201,3.1075,3.106,3.1197,3.1196,3.1195,0,3.0908,3.0897,3.0947,3.0951,3.097,3.0975,3.0983,3.1038,3.1044,3.1077,3.1067,3.1078,3.109,3.1097,3.1133,3.1146,3.1165,3.112,3.1166,3.1152,3.1162,3.1161,3.116,3.1109,3.1107,3.1105,3.1104,0,3.0792,3.0817,3.0829,3.0848,3.0858,3.0875,3.0896,3.0895,3.0955,3.0959,3.0968,3.0977,3.0994,3.1004,3.1023,3.1043,3.1082,3.109,3.1082,3.1066,3.1049,3.1056,3.1201,3.1092,3.1093,3.1094,3.1095,3.1095,3.0701,3.0694,3.0729,3.0739,3.0761,3.078,3.0777,3.0811,3.082,3.0839,3.0871,3.0874,3.0903,3.0933,3.0949,3.0952,3.0975,3.0964,3.0961,3.0957,3.0949,3.1051,3.0955,3.0956,3.0956,3.0957,3.0957,0,3.0587,3.0613,3.0623,3.0651,3.0659,3.07,3.0725,3.0728,3.0731,3.0756,3.0767,3.0776,3.0786,3.0825,3.0838,3.0833,3.0851,3.0834,3.0834,3.0837,3.0928,3.0933,3.0819,3.0819,3.0819,3.0819,3.0819,3.0819,3.0529,3.052,3.0548,3.055,3.0576,3.0581,3.0592,3.0608,3.0628,3.0637,3.0646,3.0672,3.0702,3.0719,3.0729,3.074,3.0742,3.0718,3.0734,3.0818,3.0831,3.0844,3.0848,3.0718,3.0718,3.0644,3.0643,3.0642]}]]